CZ-6A DEB

Satellite information

Favourite Embed

Satellite Type and Status

DEBRISDECAYED

Key statistics

Satellite CZ-6A DEB at a glance.

Uptime

1005

Days in orbit

Revolutions

≈ 15.8

Per day

Orbit

SSO

Sun Synchronous Orbit

Inclination

98.6

Latest

Satellite identification and parameters

Extended collection of information and parameters for CZ-6A DEB.

Object identification

Identified? True

Debris? True

Object name: CZ-6A DEB

International designator: 2022-151LG

Object number (NORAD): 54556

Object ID (CCSDS): 54556

Country: PEOPLES REPUBLIC OF CHINA (PRC)

Current information (Y/N): Y

RCS size: SMALL

Orbital parameters

Decay date: Aug. 12, 2025

Period: 91.405 minutes

Inclination: 98.6479 deg

SMA: 6721.612 km

Apoapsis: 354.225 km

Periapsis: 332.73 km

RAAN: 299.1424 deg

Eccentricy: 0.001599

Argument of periapsis: 295.2062 deg

Mean anomaly: 64.7541 deg

Mean motion: 15.75406241 rev/day

Mean motion (dot): 0.02214561 rev/day2

B* drag term: 0.012786 1/REarth

Two-line elements (TLE)

Creation date: Aug. 8, 2025, 6:16 a.m.

Reference frame: TEME

Reference center: EARTH

Epoch: Aug. 7, 2025, 11:09 p.m. UTC

TLE line 0: 0 CZ-6A DEB

TLE line 1: 1 54556U 22151LG 25219.96475706 .02214561 00000-0 12786-1 0 9995

TLE line 2: 2 54556 98.6479 299.1424 0015990 295.2062 64.7541 15.75406241146161

Live tracking on map

Satellite CZ-6A DEB has decayed and is no longer in orbit. No tracking available.

In-orbit conjunctions

Satellite CZ-6A DEB has decayed and is no longer in orbit. No conjunctions available.

Associated space launch

Chinese satellite reported for atmospheric/ocean/environmental/spatial parameter research purposes, details TBD.

CZ-6A DEB was lifted into orbit during the mission ‘Long March 6A | Yunhai 3’, on board a Long March 6A space rocket.

The launch took place on Nov. 11, 2022, 10:52 p.m. from Launch Complex 9A.

For more information about the launch, click the button.

Launch to space Long March 6A | Yunhai 3
Long March 6A | Yunhai 3

Agency: N/A

Status: Launch Successful

Launch date: Nov. 11, 2022, 10:52 p.m. UTC

Rocket: Long March 6A

Launch pad: Launch Complex 9A

Location: Taiyuan Satellite Launch Center, People's Republic of China

...

Latest news about this satellite

There are no fresh news available about this satellite. Check back as we update our databases every day.


Newsletter sign-up

Weekly statistics, charts and insights to help you stay on top of the space industry.